Погода в Биржае

Литва     56°12′03″N   24°45′23″E
темп.,
°C
ветер,
м/с
пор.,
м/с
влажн.,
%
обл.,
%
осадки,
мм/ч
давл.,
гПа
погр.,
м
12 мая, ср
ср1200:00+12юв412835 0.0 1019239
03:00+10юв412824 0.0 1019228
06:00+10юв412885 0.0 1019241
09:00+16юв59775 0.0 1019396
12:00+20юв796587 0.0 10181214
15:00+22юв695711 0.0 10171869
18:00+19юв596615 0.0 10171054
21:00+14юв37770 0.0 1016129
13 мая, чт
чт1300:00+10вюв358071 0.0 101581
03:00+9св118027 0.0 101310
06:00+11с3877100 0.2 1010208
09:00+14в6108430 0.9 1008953
12:00+14вюв7117569 0.3 10081225
15:00+12вюв8108599 1.9 1008969
18:00+11юв6118340 0.4 1008997
21:00+9вюв4987100 0.4 1008421
14 мая, пт
пт1400:00+10вюв51085100 0.0 1007507
03:00+10вюв41085100 0.0 1007451
06:00+10в5108897 0.1 1006536
09:00+10вюв51092100 0.1 1005689
12:00+11юв51295100 1.1 1005789
15:00+12юв51193100 2.2 1005801
18:00+14вюв51091100 0.1 1005688
21:00+13вюв5109437 0.9 1004409
15 мая, сб
сб1500:00+10юв389820 0.3 1005182
03:00+9ююв229811 0.3 100543
06:00+9ю229758 0.0 100533
09:00+12ю239136 0.0 1005240
12:00+16ю337682 0.1 1005908
15:00+15з5684100 1.8 1006699
18:00+15з467549 0.1 1007979
21:00+11з38865 0.1 1008193
16 мая, вс
вс1600:00+8з37945 0.0 1009142
03:00+7з229523 0.0 101016
06:00+7ююз229349 0.0 101122
09:00+12ююз23775 0.0 1012380
12:00+16ю236770 0.0 1011898
15:00+18ююв356660 1.3 10111269
18:00+18юв246353 1.3 10101123
21:00+14юв358458 1.9 100995